| time (UTC) | temp F | wind direction | speed MPH | gust MPH | rain 1hr in | rain 24hr in | rain mn in | humidity % | barometer mb |
| 20260506154002 | 47 | 176 | 2.0 | 5.0 | 0.00 | 0.00 | 0.00 | 66 | 1009.0 |
| 20260506153004 | 47 | 105 | 2.0 | 5.0 | 0.00 | 0.00 | 0.00 | 67 | 1008.8 |
| 20260506152002 | 47 | 117 | 3.0 | 8.0 | 0.00 | 0.00 | 0.00 | 62 | 1008.5 |
| 20260506151002 | 48 | 107 | 4.0 | 9.0 | 0.00 | 0.00 | 0.00 | 62 | 1008.6 |
| 20260506150003 | 51 | 118 | 4.0 | 9.0 | 0.00 | 0.00 | 0.00 | 59 | 1008.6 |
| 20260506145003 | 54 | 128 | 3.0 | 8.0 | 0.00 | 0.00 | 0.00 | 57 | 1008.4 |
| 20260506144002 | 52 | 99 | 4.0 | 8.0 | 0.00 | 0.00 | 0.00 | 64 | 1008.4 |
| 20260506143003 | 48 | 102 | 3.0 | 8.0 | 0.00 | 0.00 | 0.00 | 65 | 1008.5 |
| 20260506142002 | 50 | 91 | 4.0 | 11.0 | 0.00 | 0.00 | 0.00 | 60 | 1008.6 |
| 20260506141002 | 51 | 113 | 3.0 | 7.0 | 0.00 | 0.00 | 0.00 | 62 | 1008.4 |
| 20260506135002 | 49 | 109 | 3.0 | 7.0 | 0.00 | 0.00 | 0.00 | 66 | 1008.6 |
| 20260506133003 | 48 | 124 | 4.0 | 9.0 | 0.00 | 0.01 | 0.00 | 67 | 1008.5 |
| 20260506131002 | 48 | 109 | 4.0 | 11.0 | 0.00 | 0.01 | 0.00 | 66 | 1008.4 |
| 20260506130004 | 49 | 110 | 5.0 | 11.0 | 0.00 | 0.01 | 0.00 | 67 | 1008.4 |
| 20260506122003 | 49 | 110 | 6.0 | 11.0 | 0.00 | 0.01 | 0.00 | 68 | 1008.0 |
| 20260506121002 | 52 | 107 | 4.0 | 11.0 | 0.00 | 0.01 | 0.00 | 62 | 1008.0 |
| 20260506115003 | 51 | 32 | 1.0 | 4.0 | 0.00 | 0.01 | 0.00 | 59 | 1008.0 |
| 20260506113003 | 50 | 168 | 2.0 | 4.0 | 0.00 | 0.01 | 0.00 | 62 | 1007.8 |
| 20260506112003 | 50 | 187 | 2.0 | 7.0 | 0.00 | 0.01 | 0.00 | 63 | 1007.8 |
| 20260506111003 | 51 | 111 | 3.0 | 7.0 | 0.00 | 0.01 | 0.00 | 61 | 1007.6 |
| 20260506110003 | 52 | 98 | 2.0 | 7.0 | 0.00 | 0.01 | 0.00 | 56 | 1007.5 |
| 20260506104003 | 52 | 243 | 2.0 | 5.0 | 0.00 | 0.01 | 0.00 | 47 | 1007.3 |
| 20260506103003 | 52 | 301 | 2.0 | 5.0 | 0.00 | 0.01 | 0.00 | 47 | 1007.3 |
| 20260506102002 | 54 | 236 | 2.0 | 8.0 | 0.00 | 0.01 | 0.00 | 45 | 1007.2 |
| 20260506101003 | 53 | 235 | 3.0 | 7.0 | 0.00 | 0.01 | 0.00 | 49 | 1007.2 |
| 20260506100003 | 57 | 274 | 2.0 | 7.0 | 0.00 | 0.01 | 0.00 | 43 | 1007.0 |
| 20260506095003 | 56 | 297 | 2.0 | 7.0 | 0.00 | 0.01 | 0.00 | 44 | 1006.9 |
| 20260506094003 | 55 | 277 | 2.0 | 7.0 | 0.00 | 0.01 | 0.00 | 46 | 1006.9 |
| 20260506093003 | 54 | 313 | 2.0 | 7.0 | 0.00 | 0.01 | 0.00 | 49 | 1006.9 |
| 20260506092003 | 53 | 296 | 2.0 | 8.0 | 0.00 | 0.01 | 0.00 | 50 | 1006.8 |
| 20260506091003 | 51 | 275 | 2.0 | 8.0 | 0.00 | 0.01 | 0.00 | 54 | 1006.8 |
| 20260506090003 | 51 | 298 | 2.0 | 9.0 | 0.00 | 0.01 | 0.00 | 55 | 1006.8 |
| 20260506085003 | 49 | 282 | 2.0 | 8.0 | 0.00 | 0.01 | 0.00 | 58 | 1006.7 |
| 20260506084003 | 49 | 276 | 2.0 | 8.0 | 0.00 | 0.01 | 0.00 | 57 | 1006.6 |
| 20260506083003 | 49 | 254 | 2.0 | 9.0 | 0.00 | 0.01 | 0.00 | 58 | 1006.5 |
| 20260506082003 | 49 | 249 | 2.0 | 8.0 | 0.00 | 0.01 | 0.00 | 58 | 1006.4 |
| 20260506073003 | 47 | 277 | 2.0 | 8.0 | 0.00 | 0.01 | 0.00 | 61 | 1005.8 |
| 20260506062003 | 44 | 295 | 2.0 | 8.0 | 0.00 | 0.01 | 0.00 | 65 | 1004.9 |
| 20260506061003 | 43 | 291 | 2.0 | 7.0 | 0.00 | 0.01 | 0.00 | 67 | 1004.8 |
| 20260506051003 | 38 | 276 | 2.0 | 7.0 | 0.00 | 0.01 | 0.00 | 76 | 1004.4 |
| 20260506044003 | 37 | 263 | 2.0 | 7.0 | 0.00 | 0.01 | 0.00 | 76 | 1004.2 |
| 20260506043004 | 37 | 264 | 1.0 | 8.0 | 0.00 | 0.01 | 0.00 | 77 | 1004.1 |
| 20260506042003 | 37 | 278 | 1.0 | 4.0 | 0.00 | 0.01 | 0.00 | 77 | 1004.1 |
| 20260506041004 | 36 | 287 | 2.0 | 5.0 | 0.00 | 0.01 | 0.00 | 78 | 1003.9 |
| 20260506040004 | 36 | 274 | 2.0 | 9.0 | 0.00 | 0.01 | 0.00 | 77 | 1003.9 |
| 20260506034003 | 36 | 288 | 1.0 | 4.0 | 0.00 | 0.01 | 0.00 | 78 | 1003.7 |
| 20260506033004 | 36 | 308 | 1.0 | 4.0 | 0.00 | 0.01 | 0.00 | 78 | 1003.7 |
| 20260506032003 | 36 | 304 | 2.0 | 7.0 | 0.00 | 0.01 | 0.00 | 78 | 1003.6 |
| 20260506031003 | 36 | 297 | 2.0 | 7.0 | 0.00 | 0.01 | 0.00 | 78 | 1003.3 |
| 20260506030006 | 35 | 270 | 2.0 | 5.0 | 0.00 | 0.01 | 0.00 | 79 | 1003.5 |
| 20260506025004 | 35 | 274 | 2.0 | 7.0 | 0.00 | 0.01 | 0.00 | 78 | 1003.3 |
| 20260506024003 | 35 | 279 | 2.0 | 8.0 | 0.00 | 0.01 | 0.00 | 78 | 1003.2 |
| 20260506022003 | 35 | 293 | 2.0 | 7.0 | 0.00 | 0.01 | 0.00 | 78 | 1003.2 |
| 20260506020004 | 35 | 277 | 2.0 | 7.0 | 0.00 | 0.01 | 0.00 | 77 | 1003.2 |
| 20260506015004 | 35 | 285 | 2.0 | 8.0 | 0.00 | 0.01 | 0.00 | 77 | 1003.1 |
| 20260506014003 | 35 | 261 | 2.0 | 8.0 | 0.00 | 0.01 | 0.00 | 77 | 1002.9 |
| 20260506012004 | 35 | 255 | 1.0 | 5.0 | 0.00 | 0.01 | 0.00 | 76 | 1002.7 |
| 20260506011003 | 35 | 271 | 3.0 | 7.0 | 0.00 | 0.01 | 0.00 | 75 | 1002.8 |
| 20260506004003 | 35 | 256 | 1.0 | 4.0 | 0.00 | 0.01 | 0.00 | 74 | 1002.5 |
| 20260506003004 | 35 | 265 | 2.0 | 7.0 | 0.00 | 0.01 | 0.00 | 74 | 1002.4 |
| 20260506002004 | 35 | 312 | 1.0 | 4.0 | 0.00 | 0.01 | 0.00 | 73 | 1002.5 |
| 20260506001003 | 35 | 279 | 1.0 | 3.0 | 0.00 | 0.01 | 0.00 | 73 | 1002.3 |
| 20260506000004 | 35 | 293 | 1.0 | 4.0 | 0.00 | 0.01 | 0.00 | 73 | 1002.3 |
| 20260505234003 | 35 | 302 | 1.0 | 4.0 | 0.00 | 0.01 | 0.00 | 73 | 1002.3 |
| 20260505233005 | 35 | 302 | 1.0 | 4.0 | 0.00 | 0.01 | 0.00 | 74 | 1002.2 |
| 20260505232002 | 35 | 270 | 1.0 | 3.0 | 0.00 | 0.01 | 0.00 | 73 | 1002.3 |
| 20260505231002 | 35 | 252 | 1.0 | 4.0 | 0.00 | 0.01 | 0.00 | 72 | 1002.2 |
| 20260505224002 | 36 | 255 | 1.0 | 4.0 | 0.00 | 0.01 | 0.00 | 71 | 1002.2 |
| 20260505223003 | 36 | 262 | 1.0 | 3.0 | 0.00 | 0.01 | 0.00 | 71 | 1002.2 |
| 20260505222002 | 36 | 291 | 1.0 | 3.0 | 0.00 | 0.01 | 0.00 | 72 | 1002.1 |
| 20260505221002 | 36 | 314 | 1.0 | 3.0 | 0.00 | 0.01 | 0.00 | 71 | 1002.1 |
| 20260505220005 | 36 | 315 | 1.0 | 3.0 | 0.00 | 0.01 | 0.00 | 72 | 1002.1 |
| 20260505215002 | 36 | 306 | 1.0 | 4.0 | 0.00 | 0.01 | 0.01 | 70 | 1002.0 |
| 20260505214002 | 36 | 324 | 1.0 | 3.0 | 0.00 | 0.01 | 0.01 | 70 | 1001.9 |
| 20260505213002 | 36 | 314 | 1.0 | 3.0 | 0.00 | 0.01 | 0.01 | 69 | 1001.9 |
| 20260505212002 | 36 | 315 | 0.0 | 1.0 | 0.00 | 0.01 | 0.01 | 68 | 1001.8 |
| 20260505211002 | 36 | 300 | 0.0 | 3.0 | 0.00 | 0.01 | 0.01 | 68 | 1001.8 |
| 20260505210003 | 36 | 315 | 0.0 | 1.0 | 0.00 | 0.01 | 0.01 | 66 | 1001.7 |
| 20260505205002 | 37 | 314 | 0.0 | 1.0 | 0.00 | 0.01 | 0.01 | 64 | 1001.7 |
| 20260505204002 | 38 | 305 | 0.0 | 3.0 | 0.00 | 0.01 | 0.01 | 62 | 1001.5 |
| 20260505203003 | 39 | 303 | 0.0 | 3.0 | 0.00 | 0.01 | 0.01 | 61 | 1001.5 |
| 20260505202002 | 40 | 270 | 1.0 | 4.0 | 0.00 | 0.01 | 0.01 | 59 | 1001.4 |
| 20260505201002 | 40 | 278 | 1.0 | 4.0 | 0.00 | 0.01 | 0.01 | 59 | 1001.3 |
| 20260505200003 | 41 | 245 | 2.0 | 7.0 | 0.00 | 0.01 | 0.01 | 58 | 1001.2 |
| 20260505194002 | 41 | 270 | 0.0 | 4.0 | 0.00 | 0.01 | 0.01 | 57 | 1001.1 |
| 20260505193004 | 41 | 276 | 0.0 | 3.0 | 0.00 | 0.01 | 0.01 | 56 | 1001.0 |
| 20260505192002 | 42 | 281 | 1.0 | 4.0 | 0.00 | 0.01 | 0.01 | 54 | 1001.0 |
| 20260505191002 | 43 | 266 | 2.0 | 7.0 | 0.00 | 0.01 | 0.01 | 53 | 1000.8 |
| 20260505190004 | 43 | 259 | 2.0 | 7.0 | 0.00 | 0.02 | 0.01 | 53 | 1000.9 |
| 20260505185002 | 44 | 240 | 2.0 | 8.0 | 0.00 | 0.02 | 0.01 | 52 | 1000.7 |
| 20260505184003 | 44 | 247 | 2.0 | 5.0 | 0.00 | 0.02 | 0.01 | 50 | 1000.6 |
| 20260505183003 | 44 | 259 | 1.0 | 4.0 | 0.00 | 0.02 | 0.01 | 48 | 1000.5 |
| 20260505182002 | 45 | 268 | 1.0 | 8.0 | 0.00 | 0.02 | 0.01 | 46 | 1000.4 |
| 20260505181002 | 46 | 268 | 2.0 | 9.0 | 0.00 | 0.02 | 0.01 | 45 | 1000.4 |
| 20260505180004 | 46 | 274 | 2.0 | 9.0 | 0.00 | 0.02 | 0.01 | 43 | 1000.4 |
| 20260505175003 | 47 | 285 | 2.0 | 7.0 | 0.00 | 0.02 | 0.01 | 42 | 1000.3 |
| 20260505174002 | 47 | 300 | 2.0 | 13.0 | 0.00 | 0.02 | 0.01 | 41 | 1000.2 |
| 20260505173003 | 47 | 273 | 2.0 | 15.0 | 0.00 | 0.02 | 0.01 | 43 | 1000.2 |
| 20260505172002 | 47 | 289 | 3.0 | 12.0 | 0.00 | 0.02 | 0.01 | 45 | 1000.0 |
| 20260505171003 | 48 | 312 | 2.0 | 7.0 | 0.00 | 0.02 | 0.01 | 45 | 1000.1 |
| 20260505170003 | 47 | 289 | 3.0 | 13.0 | 0.00 | 0.02 | 0.01 | 46 | 1000.1 |
| 20260505165002 | 46 | 280 | 3.0 | 11.0 | 0.00 | 0.02 | 0.01 | 46 | 1000.1 |
| 20260505164003 | 45 | 336 | 5.0 | 17.0 | 0.00 | 0.02 | 0.01 | 48 | 999.9 |
| 20260505162002 | 48 | 291 | 2.0 | 9.0 | 0.00 | 0.02 | 0.01 | 42 | 999.8 |